Location: Deer Lodge Site
(39.6809°N, 119.9392°W)
Time: 07:53:53
(UTC-07:00)

Amateur Radio Satellites - All Passes

Search period start: 25 May 2016 07:23
Search period end: 26 May 2016 07:23
Location: Deer Lodge Site, 39.6809°N, 119.9392°W

Satellite Date Start Highest point End Downlink Frequencies (MHz)
Time Altitude Azimuth
CUTE-I 25 May 07:34:56 07:40:18 82° 285° (WNW) 07:45:40 437.470
STRAND 1 25 May 07:36:13 07:41:18 75° 257° (WSW) 07:46:26 437.568
GONETS M04 25 May 07:45:09 07:49:26 14° 60° (ENE) 07:53:42
AO-85 25 May 07:51:13 07:56:24 42° 308° (NW) 08:01:28 145.980
NOAA 18 25 May 08:04:04 08:09:06 39° 292° (WNW) 08:14:09 137.9125
BRITE-PL 25 May 08:19:26 08:23:39 25° 294° (WNW) 08:27:36 437.365/2234.400
CANX-2 25 May 08:20:42 08:24:16 25° 95° (E) 08:27:49 2200.000
DOVE 4 25 May 08:22:14 08:26:42 87° 98° (E) 08:30:55 437.250
Cubesat XI-IV 25 May 08:28:22 08:32:51 28° 294° (WNW) 08:37:20 437.490
SEEDS 25 May 08:29:16 08:32:24 20° 94° (E) 08:35:31 437.485
LilacSat-2 25 May 08:30:44 08:32:43 14° 294° (WNW) 08:34:42 437.200
NOAA 15 25 May 08:34:17 08:37:42 18° 298° (WNW) 08:41:08 137.62
PRISM 25 May 08:39:21 08:43:29 83° 257° (WSW) 08:47:40 437.425
CUBEBUG 2 25 May 08:45:20 08:47:04 12° 91° (E) 08:48:47 437.445
CUTE 1.7 + AOD 2 25 May 08:48:04 08:52:11 45° 99° (E) 08:56:17 437.475
HO-68 25 May 08:52:48 08:59:48 55° 101° (E) 09:06:48 435.675
GOMX 1 25 May 08:58:29 09:01:53 20° 295° (WNW) 09:05:08 467.674
CINEMA 3 25 May 09:12:31 09:16:43 89° 283° (WNW) 09:20:51 145.822/145.860
AIST 1 25 May 09:14:17 09:18:38 73° 264° (W) 09:22:56
CUTE-I 25 May 09:18:14 09:19:28 11° 302° (WNW) 09:20:42 437.470
SO-50 25 May 09:18:23 09:22:12 24° 46° (NE) 09:25:54 436.795
UWE-3 25 May 09:18:24 09:21:34 21° 94° (E) 09:24:45 435.000/436.395/437.385
AUBIESAT-1 25 May 09:18:28 09:21:46 74° 289° (WNW) 09:25:03 437.475
COMPASS 1 25 May 09:19:37 09:23:45 53° 100° (E) 09:27:53 437.405
M-CUBED/EXP-1 PRIME 25 May 09:22:53 09:26:04 48° 291° (WNW) 09:29:13 437.505
AAUSAT CUBESAT 2 25 May 09:24:52 09:28:57 48° 99° (E) 09:33:00 437.432
Cosmos 2499 25 May 09:27:41 09:35:40 41° 74° (ENE) 09:43:51 435.465 / 435.565
JUGNU 25 May 09:29:47 09:30:39 10° 181° (S) 09:31:30 437.505
FUNcube-1 25 May 09:30:23 09:33:13 18° 94° (E) 09:36:04 145.935
PCSat 25 May 09:30:55 09:34:46 20° 106° (ESE) 09:38:39 145.827
ANTELSAT 25 May 09:33:13 09:36:11 18° 67° (ENE) 09:39:08 437.575/2403.000
GONETS M04 25 May 09:39:10 09:47:54 75° 82° (E) 09:56:34
O/OREOS (USA 219) 25 May 09:42:19 09:46:18 30° 104° (ESE) 09:50:16 437.305
CANX-2 25 May 09:56:29 10:00:03 26° 290° (WNW) 10:03:36 2200.000
SEEDS 25 May 10:04:20 10:08:09 33° 289° (WNW) 10:11:57 437.485
Oscar 11 25 May 10:16:52 10:21:13 75° 101° (E) 10:25:33 145.826/435.025
DELFI C3 25 May 10:17:01 10:20:42 33° 97° (E) 10:24:21 145.870
CUBEBUG 2 25 May 10:19:57 10:23:59 49° 286° (WNW) 10:28:01 437.445
CUTE 1.7 + AOD 2 25 May 10:25:07 10:27:39 16° 294° (WNW) 10:30:11 437.475
ZACube-1 25 May 10:25:53 10:30:04 84° 103° (ESE) 10:34:19 437.345
UNISAT 6 25 May 10:26:50 10:31:13 71° 76° (ENE) 10:35:32 437.425
TIGRISAT 25 May 10:35:17 10:39:41 83° 76° (ENE) 10:44:01 435.000
HO-68 25 May 10:41:11 10:47:08 29° 299° (WNW) 10:53:04 435.675
POPSAT HIP 1 25 May 10:44:20 10:47:22 19° 67° (ENE) 10:50:23 437.405
QB50P1 25 May 10:44:56 10:48:01 20° 67° (ENE) 10:51:06 145.935-145.965
QB50P2 25 May 10:46:07 10:49:21 21° 68° (ENE) 10:52:35 145.880/145.840
POLYITAN 1 25 May 10:48:31 10:51:47 22° 68° (ENE) 10:55:03 437.675
UWE-3 25 May 10:54:25 10:58:03 30° 289° (WNW) 11:01:42 435.000/436.395/437.385
COMPASS 1 25 May 10:56:51 10:58:51 13° 296° (WNW) 11:00:51 437.405
HUMSAT D 25 May 10:56:56 11:00:54 43° 99° (E) 11:04:53 437.325/437.525
SO-50 25 May 10:58:26 11:02:52 43° 244° (WSW) 11:07:08 436.795
AAUSAT CUBESAT 2 25 May 11:01:46 11:04:00 14° 295° (WNW) 11:06:14 437.432
NANOSAT C BR1 25 May 11:04:08 11:07:50 30° 70° (ENE) 11:11:33 145.865
FUNcube-1 25 May 11:05:46 11:09:34 35° 289° (WNW) 11:13:25 145.935
ANTELSAT 25 May 11:08:30 11:12:37 39° 262° (W) 11:16:41 437.575/2403.000
BEESAT 3 25 May 11:11:30 11:11:48 10° 108° (ESE) 11:12:06 437.485
PCSat 25 May 11:12:25 11:17:43 54° 302° (WNW) 11:23:03 145.827
SRMSAT 25 May 11:18:39 11:19:06 10° 178° (S) 11:19:33 437.500
Cosmos 2499 25 May 11:20:48 11:28:45 44° 272° (W) 11:36:58 435.465 / 435.565
O/OREOS (USA 219) 25 May 11:21:52 11:25:40 26° 300° (WNW) 11:29:29 437.305
JAS-2 25 May 11:30:27 11:35:35 21° 57° (ENE) 11:40:55 435.910
ESTCUBE 1 25 May 11:32:25 11:35:46 20° 94° (E) 11:39:05 437.505/2401.250
DANDE 25 May 11:32:49 11:33:09 10° 74° (ENE) 11:33:28 436.750
50 SAT 25 May 11:35:42 11:37:36 13° 93° (E) 11:39:30 437.505
GONETS M04 25 May 11:37:40 11:43:43 22° 280° (W) 11:49:46
DUCHIFAT 1 25 May 11:43:23 11:47:36 82° 78° (ENE) 11:51:50 145.980
DELFI C3 25 May 11:52:32 11:55:19 18° 293° (WNW) 11:58:05 145.870
CUSAT 1 25 May 11:55:42 12:01:21 46° 90° (E) 12:08:20 437.405
Oscar 11 25 May 11:56:17 11:56:43 10° 298° (WNW) 11:57:08 145.826/435.025
CUBEBUG 1 25 May 12:04:43 12:08:35 30° 96° (E) 12:12:23 437.445
VELOX 1 25 May 12:04:54 12:08:46 29° 96° (E) 12:12:36 145.980
BEESAT 2 25 May 12:06:02 12:09:18 25° 113° (ESE) 12:12:36 435.950
Oscar 19 25 May 12:07:04 12:09:12 13° 60° (ENE) 12:11:19 437.125/150
DX 1 25 May 12:08:26 12:12:07 26° 96° (E) 12:15:46 434.975-435.025
BUGSAT 1 25 May 12:12:10 12:16:24 82° 76° (ENE) 12:20:36 437.445
POPSAT HIP 1 25 May 12:19:00 12:22:54 35° 262° (W) 12:26:47 437.405
QB50P1 25 May 12:19:42 12:23:33 33° 262° (W) 12:27:26 145.935-145.965
QB50P2 25 May 12:21:12 12:24:58 31° 263° (W) 12:28:45 145.880/145.840
POLYITAN 1 25 May 12:23:41 12:27:25 30° 263° (W) 12:31:10 437.675
HUMSAT D 25 May 12:33:44 12:36:10 15° 294° (WNW) 12:38:38 437.325/437.525
AISAT 25 May 12:40:15 12:44:41 77° 103° (ESE) 12:49:04 437.250
NANOSAT C BR1 25 May 12:40:21 12:43:35 21° 265° (W) 12:46:50 145.865
SPROUT 25 May 12:43:15 12:47:02 30° 97° (E) 12:50:46 437.525
BEESAT 3 25 May 12:45:02 12:48:55 63° 303° (WNW) 12:52:52 437.485
UKube-1 25 May 13:01:55 13:06:16 87° 99° (E) 13:10:35 .
50 SAT 25 May 13:08:02 13:11:28 36° 288° (WNW) 13:14:54 437.505
ESTCUBE 1 25 May 13:08:28 13:12:40 37° 289° (WNW) 13:16:50 437.505/2401.250
DANDE 25 May 13:09:11 13:14:13 85° 98° (E) 13:21:02 436.750
JAS-2 25 May 13:12:19 13:19:31 86° 256° (WSW) 13:27:22 435.910
TISAT 1 25 May 13:17:15 13:20:16 19° 94° (E) 13:23:15 437.305
CUSAT 1 25 May 13:38:20 13:43:44 31° 293° (WNW) 13:50:12 437.405
CUBEBUG 1 25 May 13:41:13 13:44:42 23° 292° (WNW) 13:48:09 437.445
VELOX 1 25 May 13:41:30 13:45:06 25° 292° (WNW) 13:48:41 145.980
Oscar 19 25 May 13:42:35 13:47:47 84° 259° (WSW) 13:53:01 437.125/150
BEESAT 2 25 May 13:43:37 13:47:04 28° 310° (NW) 13:50:31 435.950
DX 1 25 May 13:44:35 13:48:14 26° 292° (WNW) 13:51:50 434.975-435.025
Gurwin Techsat 1B 25 May 13:45:52 13:50:52 44° 70° (ENE) 13:55:53 435.225
AO-7 25 May 13:49:22 13:54:22 18° 50° (NE) 13:59:22 29.400- 29.500
AIST 2 25 May 13:55:06 13:58:24 24° 112° (ESE) 14:01:43 435.215
ITAMSAT 1 25 May 14:19:23 14:24:03 35° 69° (ENE) 14:28:44 435.822/435.867
SPROUT 25 May 14:19:31 14:22:48 22° 292° (WNW) 14:26:04 437.525
AISAT 25 May 14:19:53 14:20:30 10° 299° (WNW) 14:21:06 437.250
SWISSCUBE 25 May 14:24:47 14:28:33 23° 95° (E) 14:32:19 437.505
ITUPSAT 1 25 May 14:29:36 14:33:22 23° 95° (E) 14:37:08 437.325
AO-85 25 May 14:44:33 14:48:01 20° 43° (NE) 14:51:15 145.980
TISAT 1 25 May 14:52:14 14:55:58 32° 290° (WNW) 14:59:41 437.305
Cosmos 2491 25 May 14:53:25 15:01:15 35° 71° (ENE) 15:08:57 435.465 / 435.565
BEESAT 25 May 14:54:13 14:58:45 41° 99° (E) 15:03:16 436.000
DANDE 25 May 14:55:22 14:58:28 15° 303° (WNW) 15:01:57 436.750
YUBILEINY 25 May 14:58:47 15:02:19 13° 75° (ENE) 15:05:51 435.215
JAS-2 25 May 15:01:39 15:05:36 15° 275° (W) 15:09:44 435.910
Gurwin Techsat 1B 25 May 15:26:54 15:30:58 22° 266° (W) 15:35:05 435.225
AIST 2 25 May 15:33:03 15:36:44 31° 309° (NW) 15:40:27 435.215
AO-7 25 May 15:37:34 15:45:49 78° 70° (ENE) 15:54:08 29.400- 29.500
RS-15 25 May 15:55:43 16:01:11 15° 95° (E) 16:06:45 29.354- 29.394
ITAMSAT 1 25 May 15:59:14 16:03:32 27° 265° (W) 16:07:53 435.822/435.867
SWISSCUBE 25 May 16:02:02 16:06:24 36° 290° (WNW) 16:10:46 437.505
ITUPSAT 1 25 May 16:06:52 16:11:16 37° 290° (WNW) 16:15:39 437.325
AO-85 25 May 16:24:23 16:28:51 51° 244° (WSW) 16:32:56 145.980
MOZHAYETS 4 25 May 16:26:20 16:30:35 35° 97° (E) 16:34:50
KKS-1 25 May 16:27:55 16:32:13 48° 100° (E) 16:36:29 437.445
BEESAT 25 May 16:32:43 16:36:15 21° 295° (WNW) 16:39:46 436.000
NOAA 15 25 May 16:36:53 16:38:41 12° 58° (ENE) 16:40:28 137.62
YUBILEINY 25 May 16:48:52 16:57:32 77° 94° (E) 17:06:13 435.215
Cosmos 2491 25 May 16:49:58 16:58:17 50° 271° (W) 17:06:33 435.465 / 435.565
HORYU 2 25 May 16:51:33 16:55:58 75° 74° (ENE) 17:00:23 437.375
STARS 25 May 17:09:54 17:14:16 73° 102° (ESE) 17:18:37 437.465
CUTE-I 25 May 17:18:04 17:21:45 19° 63° (ENE) 17:25:27 437.470
Cosmos 2504 25 May 17:23:49 17:30:01 33° 85° (E) 17:36:28 435.465 / 435.565
AO-7 25 May 17:33:26 17:39:20 21° 267° (W) 17:45:18 29.400- 29.500
LilacSat-2 25 May 17:37:14 17:39:50 18° 68° (ENE) 17:42:26 437.200
CUBESAT XI-V 25 May 17:45:33 17:49:37 28° 96° (E) 17:53:38 437.345
NOAA 18 25 May 17:49:07 17:54:19 47° 70° (ENE) 17:59:32 137.9125
BRITE-PL 25 May 17:49:13 17:54:26 41° 70° (ENE) 17:59:45 437.365/2234.400
RS-15 25 May 18:00:03 18:11:14 73° 116° (ESE) 18:23:04 29.354- 29.394
MOZHAYETS 4 25 May 18:03:59 18:07:32 22° 293° (WNW) 18:11:04
KKS-1 25 May 18:05:45 18:08:23 16° 296° (WNW) 18:11:01 437.445
Cubesat XI-IV 25 May 18:09:08 18:14:18 56° 72° (ENE) 18:19:30 437.490
NOAA 15 25 May 18:12:19 18:17:38 88° 76° (ENE) 18:22:59 137.62
PCSat 25 May 18:18:51 18:22:20 17° 44° (NE) 18:25:48 145.827
GOMX 1 25 May 18:25:34 18:30:45 44° 71° (ENE) 18:35:51 467.674
AUBIESAT-1 25 May 18:32:37 18:33:19 10° 60° (ENE) 18:34:00 437.475
M-CUBED/EXP-1 PRIME 25 May 18:35:36 18:37:54 15° 62° (ENE) 18:40:06 437.505
YUBILEINY 25 May 18:48:53 18:55:15 22° 294° (WNW) 19:01:40 435.215
STARS 25 May 18:49:01 18:50:01 11° 298° (WNW) 18:51:00 437.465
CUTE-I 25 May 18:56:10 19:01:21 54° 260° (W) 19:06:33 437.470
LilacSat-2 25 May 19:10:35 19:13:56 29° 263° (W) 19:17:17 437.200
CANX-2 25 May 19:13:31 19:16:13 17° 66° (ENE) 19:18:55 2200.000
Cosmos 2504 25 May 19:16:23 19:23:07 42° 285° (WNW) 19:30:13 435.465 / 435.565
HO-68 25 May 19:20:41 19:27:06 38° 64° (ENE) 19:33:32 435.675
SEEDS 25 May 19:21:32 19:23:27 13° 64° (ENE) 19:25:23 437.485
CUBESAT XI-V 25 May 19:22:53 19:26:55 28° 291° (WNW) 19:30:55 437.345
DOVE 4 25 May 19:25:30 19:30:46 80° 76° (ENE) 19:35:53 437.250
BRITE-PL 25 May 19:28:15 19:32:57 27° 267° (W) 19:37:45 437.365/2234.400
NOAA 18 25 May 19:31:02 19:35:10 22° 266° (W) 19:39:20 137.9125
CUTE 1.7 + AOD 2 25 May 19:40:08 19:43:44 28° 70° (ENE) 19:47:22 437.475
CUBEBUG 2 25 May 19:43:55 19:45:02 11° 63° (ENE) 19:46:07 437.445
STRAND 1 25 May 19:47:40 19:52:30 39° 98° (E) 19:57:18 437.568
Cubesat XI-IV 25 May 19:51:14 19:54:42 17° 268° (W) 19:58:11 437.490
O/OREOS (USA 219) 25 May 19:52:35 19:56:58 50° 65° (ENE) 20:01:17 437.305
NOAA 15 25 May 19:57:20 19:58:04 10° 271° (W) 19:58:47 137.62
PCSat 25 May 20:00:57 20:06:24 82° 243° (WSW) 20:11:49 145.827
AUBIESAT-1 25 May 20:03:09 20:07:22 70° 254° (WSW) 20:11:18 437.475
GOMX 1 25 May 20:04:30 20:08:54 24° 267° (W) 20:13:17 467.674
M-CUBED/EXP-1 PRIME 25 May 20:07:57 20:12:08 50° 254° (WSW) 20:16:03 437.505
COMPASS 1 25 May 20:09:41 20:13:20 31° 71° (ENE) 20:17:01 437.405
CINEMA 3 25 May 20:12:29 20:17:18 75° 75° (ENE) 20:21:54 145.822/145.860
RS-15 25 May 20:14:16 20:24:44 38° 321° (NW) 20:35:47 29.354- 29.394
AAUSAT CUBESAT 2 25 May 20:14:30 20:18:01 28° 70° (ENE) 20:21:36 437.432
UWE-3 25 May 20:15:19 20:18:02 17° 67° (ENE) 20:20:43 435.000/436.395/437.385
PRISM 25 May 20:23:15 20:25:31 14° 92° (E) 20:27:44 437.425
BEESAT 2 25 May 20:25:11 20:27:29 15° 44° (NE) 20:29:46 435.950
FUNcube-1 25 May 20:26:16 20:28:18 13° 65° (ENE) 20:30:19 145.935
GONETS M04 25 May 20:46:58 20:51:51 16° 77° (ENE) 20:56:42
CANX-2 25 May 20:47:49 20:51:45 39° 262° (W) 20:55:43 2200.000
SEEDS 25 May 20:54:38 20:58:41 52° 260° (W) 21:02:47 437.485
DELFI C3 25 May 21:03:00 21:05:42 18° 67° (ENE) 21:08:25 145.870
BEESAT 3 25 May 21:03:03 21:06:56 53° 55° (NE) 21:10:48 437.485
DOVE 4 25 May 21:07:05 21:08:55 12° 271° (W) 21:10:44 437.250
HO-68 25 May 21:08:03 21:14:42 41° 261° (W) 21:21:24 435.675
Oscar 11 25 May 21:10:34 21:14:43 50° 74° (ENE) 21:18:54 145.826/435.025
CUTE 1.7 + AOD 2 25 May 21:16:17 21:19:33 22° 265° (W) 21:22:52 437.475
CUBEBUG 2 25 May 21:16:41 21:21:07 70° 259° (WSW) 21:25:25 437.445
ZACube-1 25 May 21:20:39 21:24:51 57° 74° (ENE) 21:28:57 437.345
STRAND 1 25 May 21:27:20 21:31:25 24° 294° (WNW) 21:35:31 437.568
O/OREOS (USA 219) 25 May 21:33:32 21:35:53 14° 261° (W) 21:38:12 437.305
AIST 1 25 May 21:42:12 21:46:33 69° 95° (E) 21:50:57
COMPASS 1 25 May 21:45:55 21:48:56 20° 266° (W) 21:51:59 437.405
HUMSAT D 25 May 21:47:45 21:51:10 26° 70° (ENE) 21:54:36 437.325/437.525
UWE-3 25 May 21:50:04 21:54:11 41° 261° (W) 21:58:14 435.000/436.395/437.385
AAUSAT CUBESAT 2 25 May 21:50:20 21:53:30 21° 266° (W) 21:56:43 437.432
CINEMA 3 25 May 21:54:05 21:54:50 10° 270° (W) 21:55:34 145.822/145.860
PRISM 25 May 21:57:03 22:01:02 44° 288° (WNW) 22:04:59 437.425
FUNcube-1 25 May 21:59:59 22:04:08 51° 260° (W) 22:08:13 145.935
BEESAT 2 25 May 22:01:45 22:05:42 59° 241° (WSW) 22:09:35 435.950
Cosmos 2499 25 May 22:04:48 22:10:45 29° 84° (E) 22:17:01 435.465 / 435.565
DANDE 25 May 22:07:32 22:12:15 16° 59° (ENE) 22:16:49 436.750
AIST 2 25 May 22:17:19 22:19:48 15° 44° (NE) 22:22:17 435.215
UNISAT 6 25 May 22:20:34 22:23:02 15° 93° (E) 22:25:30 437.425
ISS 25 May 22:27:58 22:31:14 81° 138° (SE) 22:34:30 145.825
TIGRISAT 25 May 22:28:31 22:31:22 17° 93° (E) 22:34:13 435.000
PHONESAT 2.4 25 May 22:30:59 22:33:12 18° 150° (SSE) 22:35:25 2401.200-2431.200
CUSAT 1 25 May 22:31:37 22:38:48 37° 70° (ENE) 22:45:00 437.405
ESTCUBE 1 25 May 22:31:39 22:34:38 18° 65° (ENE) 22:37:37 437.505/2401.250
RS-15 25 May 22:33:57 22:42:11 20° 355° (N) 22:50:37 29.354- 29.394
DELFI C3 25 May 22:36:46 22:40:19 32° 263° (W) 22:43:55 145.870
GONETS M04 25 May 22:38:29 22:47:19 88° 96° (E) 22:56:08
BEESAT 3 25 May 22:42:37 22:44:09 12° 251° (WSW) 22:45:42 437.485
Oscar 11 25 May 22:49:05 22:51:08 13° 269° (W) 22:53:11 145.826/435.025
CUBEBUG 1 25 May 23:00:03 23:03:34 24° 68° (ENE) 23:07:07 437.445
ZACube-1 25 May 23:00:15 23:01:27 11° 269° (W) 23:02:38 437.345
ANTELSAT 25 May 23:00:33 23:04:38 41° 99° (E) 23:08:45 437.575/2403.000
VELOX 1 25 May 23:01:34 23:05:10 24° 68° (ENE) 23:08:47 145.980
DX 1 25 May 23:03:26 23:06:47 22° 67° (ENE) 23:10:08 434.975-435.025
HUMSAT D 25 May 23:23:32 23:26:46 22° 265° (W) 23:30:00 437.325/437.525
AIST 1 25 May 23:24:28 23:24:39 10° 292° (WNW) 23:24:50
DUCHIFAT 1 25 May 23:30:02 23:32:05 13° 92° (E) 23:34:08 145.980
SPROUT 25 May 23:36:24 23:39:42 22° 68° (ENE) 23:43:00 437.525
AISAT 25 May 23:36:26 23:40:50 61° 74° (ENE) 23:45:16 437.250
50 SAT 25 May 23:44:56 23:48:33 84° 77° (ENE) 23:52:13 437.505
DANDE 25 May 23:48:09 23:56:38 71° 78° (ENE) 00:04:21 436.750
AIST 2 25 May 23:54:35 23:58:41 61° 242° (WSW) 00:02:45 435.215
UKube-1 25 May 23:55:17 23:59:34 64° 74° (ENE) 00:03:53 .
UNISAT 6 25 May 23:55:52 23:59:58 44° 287° (WNW) 00:04:06 437.425
Cosmos 2499 25 May 23:56:31 00:03:25 48° 284° (WNW) 00:10:49 435.465 / 435.565
BUGSAT 1 25 May 23:57:05 23:58:31 12° 91° (E) 23:59:56 437.445
TIGRISAT 26 May 00:04:13 00:08:11 38° 288° (WNW) 00:12:11 435.000
POPSAT HIP 1 26 May 00:04:21 00:08:15 37° 98° (E) 00:12:07 437.405
QB50P1 26 May 00:04:56 00:08:51 38° 98° (E) 00:12:46 145.935-145.965
ISS 26 May 00:05:39 00:08:01 18° 339° (NNW) 00:10:22 145.825
QB50P2 26 May 00:06:27 00:10:28 42° 99° (E) 00:14:27 145.880/145.840
PHONESAT 2.4 26 May 00:06:30 00:09:37 69° 165° (SSE) 00:12:45 2401.200-2431.200
ESTCUBE 1 26 May 00:06:47 00:11:05 44° 261° (W) 00:15:26 437.505/2401.250
POLYITAN 1 26 May 00:08:53 00:12:54 43° 99° (E) 00:16:53 437.675
TISAT 1 26 May 00:09:04 00:11:18 14° 64° (ENE) 00:13:31 437.305
CUSAT 1 26 May 00:13:45 00:20:59 43° 271° (W) 00:27:08 437.405
NANOSAT C BR1 26 May 00:24:20 00:28:30 62° 102° (ESE) 00:32:38 145.865
JAS-2 26 May 00:25:52 00:30:11 16° 86° (E) 00:34:14 435.910
CUBEBUG 1 26 May 00:35:46 00:39:42 31° 264° (W) 00:43:38 437.445
VELOX 1 26 May 00:37:34 00:41:29 30° 263° (W) 00:45:25 145.980
ANTELSAT 26 May 00:38:16 00:41:02 17° 294° (WNW) 00:43:48 437.575/2403.000
DX 1 26 May 00:38:48 00:42:45 33° 262° (W) 00:46:45 434.975-435.025
GONETS M04 26 May 00:39:29 00:45:19 19° 296° (WNW) 00:51:11
RS-15 26 May 00:50:05 01:00:26 30° 31° (NNE) 01:10:50 29.354- 29.394
DUCHIFAT 1 26 May 01:04:01 01:08:02 46° 287° (WNW) 01:12:01 145.980
SO-50 26 May 01:10:49 01:15:43 75° 120° (ESE) 01:20:37 436.795
SPROUT 26 May 01:11:38 01:15:28 31° 263° (W) 01:19:18 437.525
AISAT 26 May 01:16:03 01:17:41 12° 269° (W) 01:19:19 437.250
BUGSAT 1 26 May 01:30:16 01:34:11 49° 287° (WNW) 01:38:03 437.445
SWISSCUBE 26 May 01:30:35 01:34:24 25° 67° (ENE) 01:38:13 437.505
DANDE 26 May 01:32:13 01:38:40 25° 277° (W) 01:44:43 436.750
UKube-1 26 May 01:35:14 01:36:01 10° 270° (W) 01:36:48 .
ITUPSAT 1 26 May 01:35:41 01:39:30 25° 67° (ENE) 01:43:21 437.325
POPSAT HIP 1 26 May 01:40:55 01:43:44 18° 294° (WNW) 01:46:34 437.405
QB50P1 26 May 01:41:34 01:44:20 17° 294° (WNW) 01:47:06 145.935-145.965
TISAT 1 26 May 01:42:24 01:46:31 49° 260° (W) 01:50:39 437.305
PHONESAT 2.4 26 May 01:43:16 01:46:24 74° 1° (N) 01:49:32 2401.200-2431.200
QB50P2 26 May 01:43:21 01:45:55 16° 295° (WNW) 01:48:29 145.880/145.840
ISS 26 May 01:44:59 01:45:29 10° 359° (N) 01:46:01 145.825
POLYITAN 1 26 May 01:45:50 01:48:21 16° 295° (WNW) 01:50:51 437.675
Oscar 19 26 May 01:55:17 02:00:02 36° 98° (E) 02:04:44 437.125/150
BEESAT 26 May 01:59:44 02:04:12 43° 71° (ENE) 02:08:43 436.000
NANOSAT C BR1 26 May 02:02:24 02:03:42 11° 297° (WNW) 02:04:59 145.865
Gurwin Techsat 1B 26 May 02:03:47 02:07:24 18° 92° (E) 02:11:01 435.225
JAS-2 26 May 02:08:37 02:16:12 86° 287° (WNW) 02:22:57 435.910
ITAMSAT 1 26 May 02:34:38 02:36:59 13° 90° (E) 02:39:18 435.822/435.867
SO-50 26 May 02:53:29 02:56:44 17° 318° (NW) 03:00:00 436.795
YUBILEINY 26 May 03:00:22 03:08:17 36° 72° (ENE) 03:16:10 435.215
RS-15 26 May 03:02:45 03:15:10 81° 58° (ENE) 03:27:28 29.354- 29.394
SWISSCUBE 26 May 03:07:43 03:12:01 34° 263° (W) 03:16:19 437.505
ITUPSAT 1 26 May 03:12:52 03:17:10 34° 263° (W) 03:21:30 437.325
Cosmos 2504 26 May 03:17:57 03:21:04 12° 60° (ENE) 03:24:14 435.465 / 435.565
PHONESAT 2.4 26 May 03:20:04 03:23:09 57° 198° (SSW) 03:26:13 2401.200-2431.200
ISS 26 May 03:20:48 03:23:01 17° 20° (NNE) 03:25:13 145.825
KKS-1 26 May 03:25:00 03:29:11 40° 71° (ENE) 03:33:22 437.445
MOZHAYETS 4 26 May 03:27:30 03:31:28 31° 70° (ENE) 03:35:28
Oscar 19 26 May 03:34:56 03:39:10 26° 294° (WNW) 03:43:23 437.125/150
BEESAT 26 May 03:38:52 03:42:10 19° 267° (W) 03:45:29 436.000
AO-7 26 May 03:40:58 03:47:44 26° 95° (E) 03:54:27 29.400- 29.500
Gurwin Techsat 1B 26 May 03:42:29 03:47:39 53° 288° (WNW) 03:52:48 435.225
Cosmos 2491 26 May 03:53:27 04:01:29 41° 87° (E) 04:09:31 435.465 / 435.565
JAS-2 26 May 03:55:27 03:59:58 17° 305° (NW) 04:04:17 435.910
STARS 26 May 04:05:25 04:09:44 57° 74° (ENE) 04:14:04 437.465
ITAMSAT 1 26 May 04:11:43 04:16:56 72° 286° (WNW) 04:22:08 435.822/435.867
HORYU 2 26 May 04:44:40 04:47:12 15° 92° (E) 04:49:43 437.375
CUBESAT XI-V 26 May 04:48:11 04:51:59 25° 68° (ENE) 04:55:50 437.345
ISS 26 May 04:56:36 04:59:52 83° 38° (NE) 05:03:07 145.825
YUBILEINY 26 May 04:56:58 05:05:13 48° 271° (W) 05:13:28 435.215
PHONESAT 2.4 26 May 04:57:50 04:59:29 14° 213° (SSW) 05:01:07 2401.200-2431.200
KKS-1 26 May 05:02:51 05:05:53 18° 267° (W) 05:08:56 437.445
MOZHAYETS 4 26 May 05:04:56 05:08:38 24° 265° (W) 05:12:21
Cosmos 2504 26 May 05:07:42 05:16:03 66° 80° (E) 05:24:48 435.465 / 435.565
RS-15 26 May 05:16:43 05:26:20 28° 258° (WSW) 05:35:56 29.354- 29.394
AO-7 26 May 05:32:44 05:41:00 66° 292° (WNW) 05:49:14 29.400- 29.500
STARS 26 May 05:44:36 05:46:26 12° 269° (W) 05:48:16 437.465
Cosmos 2491 26 May 05:49:57 05:58:12 43° 286° (WNW) 06:06:31 435.465 / 435.565
BRITE-PL 26 May 05:57:31 05:59:44 13° 87° (E) 06:01:53 437.365/2234.400
NOAA 18 26 May 06:12:39 06:16:42 21° 94° (E) 06:20:44 137.9125
HORYU 2 26 May 06:19:45 06:24:00 47° 288° (WNW) 06:28:15 437.375
CUBESAT XI-V 26 May 06:25:05 06:29:13 31° 264° (W) 06:33:24 437.345
Cubesat XI-IV 26 May 06:27:45 06:32:01 24° 94° (E) 06:36:16 437.490
NOAA 15 26 May 06:28:39 06:33:30 35° 97° (E) 06:38:17 137.62
GOMX 1 26 May 06:31:18 06:32:47 11° 88° (E) 06:34:14 467.674
AO-85 26 May 06:36:06 06:41:31 66° 118° (ESE) 06:46:51 145.980
LilacSat-2 26 May 06:44:32 06:47:49 28° 97° (E) 06:51:06 437.200
Cosmos 2504 26 May 07:02:12 07:08:47 26° 277° (W) 07:15:36 435.465 / 435.565
STRAND 1 26 May 07:02:39 07:07:34 52° 72° (ENE) 07:12:31 437.568
